Starlink 3663

operational
NORAD ID: 51976 Int'l Des: 2022-025 Owner: SPXS Country: US Constellation: starlink
LEOCIRCULAR

Starlink 3663について

説明を読み込み中...

リアルタイム位置

3D地球を読み込み中...

次回通過

高度履歴

Altitude vs Time

uPlot chart will show altitude changes over time

軌道要素

1 51976U 22025W 25259.11236895 .00104772 00000-0 10780-2 0 9996
2 51976 53.2114 42.5147 0003334 4.4527 355.6519 15.64076623195564
Epoch: Sep 16, 2025 • Age: 12 hours

現在のステータス

高度 385.9 km
速度 7.68 km/s
衛星直下点 -36.21°S, 149.82°E
打ち上げ日 Mar 9, 2022
運用期間 3.5 years
タイプ internet

技術仕様

分類 Payload
質量 297.00 kg
乾燥質量 275.00 kg
総質量 297.00 kg
長さ 0.20 m
直径 2.80 m
スパン 9.00 m
形状 Box + pan
製造者 SPXS
バスタイプ Starlink
フェーズステータス In Orbit
所有者/国 SPXS/US

大規模コンステレーション

Loading constellations...